Location: Hains Lake
(37.8540°N, 99.8578°W)
Time: 18:53:03
(UTC+00:00)

Vanguard 3 - Pass Details

Date: 25 April 2021
Orbit: 508 x 3262 km, 33.4° (Epoch: 13 May)

Event Time Altitude Azimuth Distance (km) Brightness Sun altitude
Exits shadow 10:33:42 24° 213° (SSW) 1,106 7.3 -14.7°
Maximum altitude 10:34:12 25° 200° (SSW) 1,072 7.4 -14.6°
Drops below altitude 10° 10:37:15 10° 143° (SE) 1,717 8.9 -14.1°
Sets 10:39:45 0° 128° (SE) 2,682 10.1 -13.6°
